Location: Casalecchio di Reno
(44.4760°N, 11.2757°E)
Time: 19:02:26
(UTC+02:00)

DX 1 - Pass Details

Date: 27 June 2024
Orbit: 607 x 619 km, 98.3° (Epoch: 15 July)

Event Time Altitude Azimuth Distance (km) Brightness Sun altitude
Rises 00:43:01 0° 23° (NNE) 2,877 ? -21.7°
Reaches altitude 10° 00:45:25 10° 34° (NE) 1,968 ? -21.8°
Maximum altitude 00:49:12 30° 97° (E) 1,095 ? -21.9°
Enters shadow 00:49:17 30° 99° (E) 1,095 ? -21.9°
